TimeCDT,TemperatureF,Dew PointF,Humidity,Sea Level PressureIn,VisibilityMPH,Wind Direction,Wind SpeedMPH,Gust SpeedMPH,PrecipitationIn,Events,Conditions,WindDirDegrees,DateUTC
12:56 AM,60.1,55.9,86,30.04,10.0,Calm,Calm,-,N/A,,Clear,0,2013-07-24 05:56:00
1:56 AM,57.9,55.0,90,30.04,10.0,Calm,Calm,-,N/A,,Clear,0,2013-07-24 06:56:00
2:56 AM,57.0,55.0,93,30.05,10.0,Calm,Calm,-,N/A,,Clear,0,2013-07-24 07:56:00
3:56 AM,55.9,54.0,93,30.06,10.0,Calm,Calm,-,N/A,,Clear,0,2013-07-24 08:56:00
4:56 AM,55.9,54.0,93,30.06,10.0,Calm,Calm,-,N/A,,Partly Cloudy,0,2013-07-24 09:56:00
5:56 AM,57.0,55.0,93,30.07,10.0,Calm,Calm,-,N/A,,Mostly Cloudy,0,2013-07-24 10:56:00
6:56 AM,59.0,55.9,90,30.08,10.0,Calm,Calm,-,N/A,,Mostly Cloudy,0,2013-07-24 11:56:00
7:56 AM,64.0,57.9,80,30.08,10.0,Calm,Calm,-,N/A,,Scattered Clouds,0,2013-07-24 12:56:00
8:56 AM,68.0,57.0,68,30.10,10.0,Calm,Calm,-,N/A,,Partly Cloudy,0,2013-07-24 13:56:00
9:56 AM,71.1,57.9,63,30.09,10.0,Variable,3.5,-,N/A,,Partly Cloudy,0,2013-07-24 14:56:00
10:56 AM,73.0,57.9,59,30.09,10.0,WNW,6.9,-,N/A,,Partly Cloudy,290,2013-07-24 15:56:00
11:56 AM,75.9,59.0,56,30.08,10.0,WNW,6.9,-,N/A,,Scattered Clouds,300,2013-07-24 16:56:00
12:56 PM,75.0,57.9,55,30.08,10.0,SW,4.6,-,N/A,,Mostly Cloudy,230,2013-07-24 17:56:00
1:56 PM,78.1,60.1,54,30.06,10.0,WNW,8.1,-,N/A,,Scattered Clouds,290,2013-07-24 18:56:00
2:56 PM,80.1,60.1,50,30.04,10.0,West,8.1,-,N/A,,Scattered Clouds,270,2013-07-24 19:56:00
3:56 PM,80.1,60.1,50,30.03,10.0,Variable,5.8,-,N/A,,Mostly Cloudy,0,2013-07-24 20:56:00
4:56 PM,82.0,61.0,49,30.01,10.0,NNW,4.6,-,N/A,,Scattered Clouds,330,2013-07-24 21:56:00
5:56 PM,80.1,60.1,50,30.00,10.0,Calm,Calm,-,N/A,,Mostly Cloudy,0,2013-07-24 22:56:00
6:56 PM,80.1,60.1,50,29.99,10.0,West,4.6,-,N/A,,Partly Cloudy,260,2013-07-24 23:56:00
7:56 PM,79.0,63.0,58,30.00,10.0,Calm,Calm,-,N/A,,Partly Cloudy,0,2013-07-25 00:56:00
8:56 PM,75.9,57.9,54,29.99,10.0,Calm,Calm,-,N/A,,Partly Cloudy,0,2013-07-25 01:56:00
9:56 PM,68.0,60.1,76,30.00,10.0,Calm,Calm,-,N/A,,Partly Cloudy,0,2013-07-25 02:56:00
10:56 PM,66.0,61.0,84,30.01,10.0,Calm,Calm,-,N/A,,Clear,0,2013-07-25 03:56:00
11:56 PM,66.0,61.0,84,30.00,10.0,Calm,Calm,-,N/A,,Partly Cloudy,0,2013-07-25 04:56:00